Time,TemperatureF,DewpointF,PressureIn,WindDirection,WindDirectionDegrees,WindSpeedMPH,WindSpeedGustMPH,Humidity,HourlyPrecipIn,Conditions,Clouds,dailyrainin,SolarRadiationWatts/m^2,SoftwareType,DateUTC
2014-10-22 00:00:00,45.3,44.8,29.64,North,5,1.0,3.0,98,0.08,,,0.00,0,WeatherCatV2.00B4475,2014-10-22 04:00:00,
2014-10-22 00:05:00,45.3,44.8,29.64,North,5,0.0,3.0,98,0.18,,,0.01,0,WeatherCatV2.00B4475,2014-10-22 04:05:00,
2014-10-22 00:10:00,45.3,44.8,29.64,North,5,0.0,3.0,98,0.07,,,0.01,0,WeatherCatV2.00B4475,2014-10-22 04:10:00,
2014-10-22 00:15:00,45.3,44.8,29.64,North,0,0.0,1.0,98,0.07,,,0.02,0,WeatherCatV2.00B4475,2014-10-22 04:15:00,
2014-10-22 00:20:00,45.4,44.9,29.64,NNW,341,0.0,4.0,98,0.09,,,0.03,0,WeatherCatV2.00B4475,2014-10-22 04:20:00,
2014-10-22 00:25:00,45.4,44.9,29.64,North,9,4.0,7.0,98,0.09,,,0.04,0,WeatherCatV2.00B4475,2014-10-22 04:25:00,
2014-10-22 00:30:00,45.5,45.0,29.64,North,355,0.0,4.0,98,0.09,,,0.04,0,WeatherCatV2.00B4475,2014-10-22 04:30:00,
2014-10-22 00:35:00,45.5,45.0,29.64,North,0,0.0,3.0,98,0.05,,,0.05,0,WeatherCatV2.00B4475,2014-10-22 04:35:00,
2014-10-22 00:40:00,45.5,45.0,29.64,North,11,0.0,1.0,98,0.05,,,0.05,0,WeatherCatV2.00B4475,2014-10-22 04:40:00,
2014-10-22 00:45:00,45.5,45.0,29.64,North,5,1.0,4.0,98,0.05,,,0.05,0,WeatherCatV2.00B4475,2014-10-22 04:45:00,
2014-10-22 00:50:00,45.5,45.0,29.64,North,355,0.0,1.0,98,0.04,,,0.06,0,WeatherCatV2.00B4475,2014-10-22 04:50:00,
2014-10-22 00:55:00,45.5,45.0,29.64,North,350,1.0,3.0,98,0.10,,,0.06,0,WeatherCatV2.00B4475,2014-10-22 04:55:00,
2014-10-22 01:00:00,45.5,45.0,29.64,North,5,3.0,5.0,98,0.10,,,0.07,0,WeatherCatV2.00B4475,2014-10-22 05:00:00,
2014-10-22 01:05:00,45.5,45.0,29.64,North,5,2.0,2.0,98,0.06,,,0.07,0,WeatherCatV2.00B4475,2014-10-22 05:05:00,
2014-10-22 01:10:00,45.5,45.0,29.64,North,0,0.0,4.0,98,0.04,,,0.07,0,WeatherCatV2.00B4475,2014-10-22 05:10:00,
2014-10-22 01:15:00,45.6,45.1,29.64,North,355,5.0,5.0,98,0.00,,,0.07,0,WeatherCatV2.00B4475,2014-10-22 05:15:00,
2014-10-22 01:20:00,45.6,45.1,29.64,North,0,4.0,6.0,98,0.00,,,0.08,0,WeatherCatV2.00B4475,2014-10-22 05:20:00,
2014-10-22 01:25:00,45.7,45.2,29.64,North,0,5.0,7.0,98,0.00,,,0.08,0,WeatherCatV2.00B4475,2014-10-22 05:25:00,
2014-10-22 01:30:00,45.8,45.3,29.64,North,5,4.0,7.0,98,0.00,,,0.08,0,WeatherCatV2.00B4475,2014-10-22 05:30:00,
2014-10-22 01:35:00,45.8,45.3,29.64,NNE,13,5.0,6.0,98,0.00,,,0.08,0,WeatherCatV2.00B4475,2014-10-22 05:35:00,
2014-10-22 01:40:00,45.8,45.3,29.64,North,5,4.0,5.0,98,0.00,,,0.08,0,WeatherCatV2.00B4475,2014-10-22 05:40:00,
2014-10-22 01:45:00,45.9,45.4,29.64,North,355,2.0,4.0,98,0.00,,,0.08,0,WeatherCatV2.00B4475,2014-10-22 05:45:00,
2014-10-22 01:50:00,45.9,45.4,29.64,North,0,4.0,6.0,98,0.00,,,0.08,0,WeatherCatV2.00B4475,2014-10-22 05:50:00,
2014-10-22 01:55:00,45.8,45.3,29.64,North,0,1.0,2.0,98,0.00,,,0.08,0,WeatherCatV2.00B4475,2014-10-22 05:55:00,
2014-10-22 02:00:00,45.8,45.3,29.64,North,5,4.0,5.0,98,0.00,,,0.08,0,WeatherCatV2.00B4475,2014-10-22 06:00:00,
2014-10-22 02:05:00,45.8,45.0,29.64,North,5,0.0,5.0,97,0.00,,,0.08,0,WeatherCatV2.00B4475,2014-10-22 06:05:00,
2014-10-22 02:10:00,45.7,44.9,29.64,NNW,346,4.0,5.0,97,0.00,,,0.09,0,WeatherCatV2.00B4475,2014-10-22 06:10:00,
2014-10-22 02:15:00,45.7,44.9,29.65,North,355,1.0,4.0,97,0.00,,,0.09,0,WeatherCatV2.00B4475,2014-10-22 06:15:00,
2014-10-22 02:20:00,45.6,44.8,29.64,North,355,2.0,3.0,97,0.00,,,0.09,0,WeatherCatV2.00B4475,2014-10-22 06:20:00,
2014-10-22 02:25:00,45.6,44.8,29.64,North,0,2.0,5.0,97,0.04,,,0.10,0,WeatherCatV2.00B4475,2014-10-22 06:25:00,
2014-10-22 02:30:00,45.6,44.8,29.64,NNW,343,0.0,5.0,97,0.04,,,0.10,0,WeatherCatV2.00B4475,2014-10-22 06:30:00,
2014-10-22 02:35:00,45.6,44.8,29.64,NNW,348,3.0,6.0,97,0.04,,,0.10,0,WeatherCatV2.00B4475,2014-10-22 06:35:00,
2014-10-22 02:40:00,45.5,44.7,29.64,NNW,346,3.0,5.0,97,0.04,,,0.10,0,WeatherCatV2.00B4475,2014-10-22 06:40:00,
2014-10-22 02:45:00,45.5,44.7,29.64,NNW,342,3.0,3.0,97,0.04,,,0.11,0,WeatherCatV2.00B4475,2014-10-22 06:45:00,
2014-10-22 02:50:00,45.4,44.6,29.64,North,355,0.0,1.0,97,0.04,,,0.11,0,WeatherCatV2.00B4475,2014-10-22 06:50:00,
2014-10-22 02:55:00,45.4,44.6,29.64,North,355,0.0,2.0,97,0.04,,,0.11,0,WeatherCatV2.00B4475,2014-10-22 06:55:00,
2014-10-22 03:00:00,45.3,44.5,29.64,North,0,0.0,3.0,97,0.00,,,0.11,0,WeatherCatV2.00B4475,2014-10-22 07:00:00,
2014-10-22 03:05:00,45.2,44.4,29.64,North,355,0.0,0.0,97,0.00,,,0.12,0,WeatherCatV2.00B4475,2014-10-22 07:05:00,
2014-10-22 03:10:00,45.2,44.4,29.64,North,355,0.0,1.0,97,0.00,,,0.12,0,WeatherCatV2.00B4475,2014-10-22 07:10:00,
2014-10-22 03:15:00,45.1,44.3,29.65,North,0,0.0,3.0,97,0.08,,,0.13,0,WeatherCatV2.00B4475,2014-10-22 07:15:00,
2014-10-22 03:21:00,45.1,44.3,29.65,North,0,0.0,1.0,97,0.07,,,0.13,0,WeatherCatV2.00B4475,2014-10-22 07:21:00,
2014-10-22 03:26:00,45.0,44.2,29.65,North,355,0.0,5.0,97,0.04,,,0.13,0,WeatherCatV2.00B4475,2014-10-22 07:26:00,
2014-10-22 03:31:00,45.0,44.2,29.65,North,5,0.0,4.0,97,0.04,,,0.14,0,WeatherCatV2.00B4475,2014-10-22 07:31:00,
2014-10-22 03:36:00,45.0,44.2,29.65,North,5,0.0,2.0,97,0.04,,,0.14,0,WeatherCatV2.00B4475,2014-10-22 07:36:00,
2014-10-22 03:41:00,45.0,44.2,29.65,North,5,0.0,1.0,97,0.04,,,0.14,0,WeatherCatV2.00B4475,2014-10-22 07:41:00,
2014-10-22 03:46:00,45.0,44.2,29.65,North,5,1.0,3.0,97,0.00,,,0.14,0,WeatherCatV2.00B4475,2014-10-22 07:46:00,
2014-10-22 03:51:00,44.9,44.1,29.65,North,0,0.0,2.0,97,0.00,,,0.14,0,WeatherCatV2.00B4475,2014-10-22 07:51:00,
2014-10-22 03:56:00,44.9,44.1,29.65,North,0,0.0,2.0,97,0.00,,,0.14,0,WeatherCatV2.00B4475,2014-10-22 07:56:00,
2014-10-22 04:01:00,44.9,44.1,29.66,North,0,0.0,0.0,97,0.00,,,0.14,0,WeatherCatV2.00B4475,2014-10-22 08:01:00,
2014-10-22 04:06:00,44.8,44.0,29.66,North,0,0.0,0.0,97,0.00,,,0.15,0,WeatherCatV2.00B4475,2014-10-22 08:06:00,
2014-10-22 04:11:00,44.8,44.0,29.66,North,0,0.0,0.0,97,0.00,,,0.15,0,WeatherCatV2.00B4475,2014-10-22 08:11:00,
2014-10-22 04:16:00,44.8,44.0,29.66,North,355,2.0,3.0,97,0.05,,,0.16,0,WeatherCatV2.00B4475,2014-10-22 08:16:00,
2014-10-22 04:21:00,44.7,43.9,29.66,NNW,338,0.0,3.0,97,0.05,,,0.16,0,WeatherCatV2.00B4475,2014-10-22 08:21:00,
2014-10-22 04:26:00,44.8,44.0,29.66,North,5,0.0,3.0,97,0.08,,,0.17,0,WeatherCatV2.00B4475,2014-10-22 08:26:00,
2014-10-22 04:31:00,44.8,44.0,29.66,North,5,0.0,1.0,97,0.07,,,0.18,0,WeatherCatV2.00B4475,2014-10-22 08:31:00,
2014-10-22 04:36:00,44.8,44.0,29.66,North,355,0.0,3.0,97,0.19,,,0.19,0,WeatherCatV2.00B4475,2014-10-22 08:36:00,
2014-10-22 04:41:00,44.8,44.0,29.66,North,355,2.0,2.0,97,0.16,,,0.20,0,WeatherCatV2.00B4475,2014-10-22 08:41:00,
2014-10-22 04:46:00,44.8,44.0,29.66,North,5,0.0,2.0,97,0.13,,,0.21,0,WeatherCatV2.00B4475,2014-10-22 08:46:00,
2014-10-22 04:51:00,44.8,44.0,29.66,North,5,0.0,0.0,97,0.06,,,0.21,0,WeatherCatV2.00B4475,2014-10-22 08:51:00,
2014-10-22 04:56:00,44.8,44.0,29.66,North,5,0.0,0.0,97,0.04,,,0.21,0,WeatherCatV2.00B4475,2014-10-22 08:56:00,
2014-10-22 05:01:00,44.8,44.0,29.66,North,11,0.0,0.0,97,0.04,,,0.22,0,WeatherCatV2.00B4475,2014-10-22 09:01:00,